Location: Blairvadach
(56.2780°N, 6.9720°W)
Time: 13:44:25
(UTC+00:00)

Envisat - Pass Details

Date: 23 November 2019
Orbit: 764 x 766 km, 98.1° (Epoch: 07 December)

Event Time Altitude Azimuth Distance (km) Brightness Sun altitude
Rises 18:09:47 0° 164° (SSE) 3,224 6.2 -16.2°
Reaches altitude 10° 18:12:05 10° 166° (SSE) 2,301 5.5 -16.5°
Maximum altitude 18:17:10 83° 254° (WSW) 780 3.0 -17.2°
Drops below altitude 10° 18:22:17 10° 343° (NNW) 2,317 5.6 -17.9°
Sets 18:24:36 0° 345° (NNW) 3,247 6.3 -18.3°
